Rifle, CO

1:17 PM MDT on September 26, 2017 (GMT -0600)
Garfield County Regional

Weather History for KRIL - October, 2014

Change the Weather History Date:

Tuesday, October 7, 2014

  Actual Average Record
Temperature  
Mean Temperature 54 °F 53 °F  
Max Temperature 71 °F 69 °F 86 °F (1944)
Min Temperature 37 °F 37 °F 18 °F (1955)
Degree Days  
Heating Degree Days 11 12  
Month to date heating degree days 96 78  
Since 1 July heating degree days 182 224  
Cooling Degree Days 0 0  
Month to date cooling degree days 0 0  
Year to date cooling degree days 555 541  
Growing Degree Days 4 (Base 50)    
Moisture  
Dew Point 36 °F    
Average Humidity 56    
Maximum Humidity 85    
Minimum Humidity 27    
Precipitation  
Precipitation 0.00 in 0.05 in 0.72 in (1916)
Month to date precipitation 0.51 0.39  
Year to date precipitation 10.82 10.86  
Sea Level Pressure  
Sea Level Pressure 30.07 in    
Wind  
Wind Speed 2 mph (ESE)    
Max Wind Speed 7 mph    
Max Gust Speed 8 mph    
Visibility 10 miles    
Events      
T = Trace of Precipitation, MM = Missing Value Source: NWS Daily Summary

Daily Weather History Graph

Daily Weather History Graph

Search for Another Location

Airport or City:

Trip Planner

Search our weather history database for the weather conditions in past years. The results will help you decide how hot, cold, wet, or windy it might be!

Date:

Astronomy

Oct. 07, 2014 Rise Set
Actual Time 7:12 AM MDT 6:43 PM MDT
Civil Twilight 6:46 AM MDT 7:10 PM MDT
Nautical Twilight 6:14 AM MDT 7:41 PM MDT
Astronomical Twilight 5:43 AM MDT 8:12 PM MDT
Moon 6:21 PM MDT (10/7) 6:13 AM MDT (10/7)
Length of Visible Light 12h 24m
Length of Day
11h 30m
Waxing Gibbous, 99% of the Moon is Illuminated
Oct 7
Waxing Gibbous
Oct 8
Full
Oct 15
Last Quarter
Oct 23
New
Oct 30
First Quarter

Hourly Weather History & Observations

Time (MDT) Temp. Windchill Dew Point Humidity Pressure Visibility Wind Dir Wind Speed Gust Speed Precip Events Conditions
12:53 AM 45.0 °F - 35.1 °F 68% 30.08 in 10.0 mi Calm Calm - N/A   Clear
1:53 AM 45.0 °F - 34.0 °F 65% 30.06 in 10.0 mi Calm Calm - N/A   Clear
2:53 AM 41.0 °F 39.0 °F 34.0 °F 76% 30.07 in 10.0 mi SSE 3.5 mph - N/A   Clear
3:53 AM 39.0 °F 35.7 °F 34.0 °F 82% 30.08 in 10.0 mi East 4.6 mph - N/A   Clear
4:53 AM 41.0 °F - 33.1 °F 73% 30.08 in 10.0 mi Calm Calm - N/A   Clear
5:53 AM 39.0 °F - 33.1 °F 79% 30.11 in 10.0 mi Calm Calm - N/A   Clear
6:53 AM 37.9 °F 35.5 °F 33.1 °F 83% 30.13 in 10.0 mi SSW 3.5 mph - N/A   Clear
7:53 AM 37.9 °F - 34.0 °F 86% 30.15 in 10.0 mi Calm Calm - N/A   Clear
8:53 AM 44.1 °F 42.5 °F 35.1 °F 71% 30.15 in 10.0 mi ESE 3.5 mph - N/A   Clear
9:53 AM 51.1 °F - 37.0 °F 59% 30.14 in 10.0 mi Calm Calm - N/A   Clear
10:53 AM 55.9 °F - 35.1 °F 45% 30.12 in 10.0 mi Calm Calm - N/A   Clear
11:53 AM 59.0 °F - 34.0 °F 39% 30.11 in 10.0 mi Calm Calm - N/A   Clear
12:53 PM 64.0 °F - 35.1 °F 34% 30.07 in 10.0 mi Calm Calm - N/A   Clear
1:53 PM 68.0 °F - 36.0 °F 31% 30.02 in 10.0 mi North 3.5 mph - N/A   Clear
2:53 PM 68.0 °F - 34.0 °F 28% 30.01 in 10.0 mi NNW 4.6 mph - N/A   Clear
3:53 PM 70.0 °F - 36.0 °F 29% 30.00 in 10.0 mi Calm Calm - N/A   Clear
4:53 PM 70.0 °F - 37.9 °F 31% 29.99 in 10.0 mi NNE 3.5 mph - N/A   Clear
5:53 PM 68.0 °F - 39.9 °F 36% 30.00 in 10.0 mi ENE 3.5 mph - N/A   Clear
6:53 PM 60.1 °F - 42.1 °F 51% 30.04 in 10.0 mi South 3.5 mph - N/A   Clear
7:53 PM 54.0 °F - 42.1 °F 64% 30.07 in 10.0 mi Calm Calm - N/A   Clear
8:53 PM 53.1 °F - 41.0 °F 64% 30.06 in 10.0 mi ESE 5.8 mph - N/A   Clear
9:53 PM 52.0 °F - 39.0 °F 61% 30.05 in 10.0 mi ESE 4.6 mph - N/A   Clear
10:53 PM 52.0 °F - 37.9 °F 59% 30.05 in 10.0 mi SE 3.5 mph - N/A   Clear
11:53 PM 48.9 °F - 39.0 °F 69% 30.05 in 10.0 mi Calm Calm - N/A   Clear